Location: Newark
(25.6108°S, 54.5803°W)
Time: 21:22:10
(UTC+00:00)

Courier 1B - Pass Details

Date: 01 November 2020
Orbit: 962 x 1209 km, 28.3° (Epoch: 24 November)

Event Time Altitude Azimuth Distance (km) Brightness Sun altitude
Rises 20:38:08 0° 347° (NNW) 3,690 10.6 16.0°
Reaches altitude 10° 20:44:12 10° 29° (NNE) 2,817 9.6 14.7°
Maximum altitude 20:44:53 10° 35° (NE) 2,815 9.6 14.5°
Drops below altitude 10° 20:45:35 10° 41° (NE) 2,836 9.5 14.4°
Sets 20:51:53 0° 81° (E) 3,884 10.0 13.0°
